Regional Weather Roundup
Issued by NWS

Home | Current Version | Previous Version | Text Only | Print | Product List | Glossary On
Versions: 1 2 3 4 5 6 7 8 9 10 11 12 13 14 15 16 17 18 19 20 21 22 23 24 25 26 27 28 29 30 31 32 33 34 35 36 37 38 39 40 41 42 43 44 45 46 47 48 49 50
000
ASUS46 KSTO 300104
RWRCA

NORTHERN AND CENTRAL CA REGIONAL WEATHER ROUNDUP
NATIONAL WEATHER SERVICE SACRAMENTO CA
600 PM PDT WED MAR 29 2017

NOTE: FAIR INDICATES FEW OR NO CLOUDS BELOW 12,000 FEET WITH NO
SIGNIFICANT WEATHER AND/OR OBSTRUCTIONS TO VISIBILITY.

CAZ001-003-300200-
NORTHWEST AREA

CITY           SKY/WX    TMP DP  RH WIND       PRES   REMARKS
CRESCENT CITY  LGT RAIN  52  51  97 S15       30.15S FOG
UKIAH          PTSUNNY   68  40  35 N9        30.13S
$$

CAZ006-505>513-300200-
BAY AREA

CITY           SKY/WX    TMP DP  RH WIND       PRES   REMARKS
SANTA ROSA     MOSUNNY   74  47  38 W10       30.07F
SAN RAFAEL     N/A       70  MM  MM MISG
NAPA           PTSUNNY   65  53  65 W12       30.11R
CONCORD        MOSUNNY   75  46  35 W14       30.08S
OAKLAND CITY   N/A      MM  MM  MM MISG
OAKLAND        PTSUNNY   63  55  75 W15G33    30.13S
SAN FRAN CITY  N/A       61  MM  70 MISG
SAN FRAN ARPT  MOSUNNY   61  50  67 W25G31    30.14S
LIVERMORE      SUNNY     72  47  40 W6        30.09S
HAYWARD        SUNNY     63  50  62 W12G21    30.14R
REDWOOD CITY   N/A       MM  MM  MM MISG
MOFFETT ARPT   SUNNY     65  54  67 N15       30.12S
SAN JOSE ARPT  MOSUNNY   71  47  42 W8        30.11F
$$
CAZ034-037-514>518-300200-
CENTRAL COAST

CITY           SKY/WX    TMP DP  RH WIND       PRES   REMARKS
WATSONVILLE    SUNNY     66  56  70 S7        30.12S
SALINAS        SUNNY     65  50  58 W12       30.12F
MONTEREY       SUNNY     61  51  70 W8        30.15S
SAN LUIS OBISP MOSUNNY   68  49  50 NW15      30.06F
SANTA MARIA    MOSUNNY   63  51  65 NW10      30.06R
$$
CAZ015-016-300200-
NORTHERN SACRAMENTO VALLEY

CITY           SKY/WX    TMP DP  RH WIND       PRES   REMARKS
REDDING        PTSUNNY   70  46  42 CALM      30.06F
RED BLUFF      PTSUNNY   69  52  54 SW3       30.07F
OROVILLE       SUNNY     70  49  47 SW3       30.07F
$$
CAZ016>018-300200-
SOUTHERN SACRAMENTO VALLEY

CITY           SKY/WX    TMP DP  RH WIND       PRES   REMARKS
AUBURN         PTSUNNY   68  46  45 CALM      30.12R
BEALE AFB      PTSUNNY   71  54  55 S7        30.04F
LINCOLN        FAIR      72  46  40 SW5       30.07S
MARYSVILLE     MOSUNNY   71  49  45 S7        30.06F
SAC INTL ARPT  MOSUNNY   74  54  49 NE6       30.06F
MATHER AIRPORT PTSUNNY   73  52  46 SE5       30.07F
DOWNTOWN SAC   N/A       76  MM  MM MISG
SAC EXEC ARPT  MOSUNNY   74  53  48 SW5       30.06F
VACAVILLE      MOSUNNY   73  54  51 SW8       30.06F
TRAVIS AFB     MOSUNNY   69  56  61 SW15      30.05S
$$
CAZ019>021-300200-
SAN JOAQUIN VALLEY

CITY           SKY/WX    TMP DP  RH WIND       PRES   REMARKS
STOCKTON       SUNNY     74  51  44 W5        30.06F
MODESTO        SUNNY     77  50  38 N7        30.07F
MERCED         MOSUNNY   73  50  44 N5        30.08F
LEMOORE        PTSUNNY   72  44  36 N10       30.09S
FRESNO         PTSUNNY   72  49  44 NW8       30.09S
HANFORD        MOSUNNY   74  51  44 N5        30.09S
PORTERVILLE    PTSUNNY   73  49  42 W6        30.10S
BAKERSFIELD    MOSUNNY   76  47  35 NW9       30.09R
$$
CAZ011-012-071-300200-
NORTHERN MOUNTAINS

CITY           SKY/WX    TMP DP  RH WIND       PRES   REMARKS
YREKA          CLOUDY    52  48  86 E7        30.09F
MOUNT SHASTA   LGT RAIN  52  47  83 VRB3      30.09F
ALTURAS        LGT RAIN  50  45  83 S7        30.10F
$$
CAZ011-012-071-300200-
SIERRA NEVADA MTNS

CITY           SKY/WX    TMP DP  RH WIND       PRES   REMARKS
BLUE CANYON    CLOUDY    55  40  56 W5        30.22F
TRUCKEE        PTSUNNY   55  37  50 W6        30.21F
TAHOE VLY ARPT CLOUDY    56  35  45 CALM      30.22S
MAMMOTH LAKES  FAIR      60  23  24 SW6       30.22S
$$




USA.gov is the U.S. government's official web portal to all federal, state and local government web resources and services.